GW3217 Weather Reports


Display with metric or nautical units.
time (UTC)temp
F
wind
direction
speed
MPH
gust
MPH
rain 1hr
in
rain 24hr
in
rain mn
in
humidity
%
barometer
mb
20260901023930 66 330 0.0 0.0 0.00 0.01 0.01 99 1021.5
20260901023425 66 331 0.0 0.0 0.00 0.01 0.01 99 1021.5
20260901022920 66 331 0.0 0.0 0.00 0.01 0.01 99 1021.7
20260901022416 66 330 0.0 0.0 0.00 0.01 0.01 99 1021.7
20260901021911 66 329 0.0 0.0 0.00 0.01 0.01 99 1021.5
20260901021407 66 331 0.0 0.0 0.00 0.01 0.01 99 1021.6
20260901020902 66 322 0.0 0.0 0.00 0.01 0.01 99 1021.7
20260901020357 66 329 0.0 0.0 0.00 0.01 0.01 99 1021.4
20260901015856 66 328 0.0 0.0 0.00 0.01 0.01 99 1021.4
20260901015353 66 327 0.0 0.0 0.00 0.01 0.01 99 1021.6
20260901014852 66 333 0.0 0.0 0.00 0.01 0.01 99 1021.4
20260901014348 66 328 0.0 0.0 0.00 0.01 0.01 99 1021.4
20260901013843 66 319 0.0 0.0 0.00 0.01 0.01 99 1021.6
20260901013339 66 328 0.0 0.0 0.00 0.01 0.01 99 1021.3
20260901012834 66 330 0.0 0.0 0.00 0.01 0.01 99 1021.6
20260901012329 66 334 0.0 0.0 0.00 0.01 0.01 99 1021.6
20260901011825 66 330 0.0 0.0 0.00 0.01 0.01 99 1021.7
20260901011320 66 322 0.0 0.0 0.00 0.01 0.01 99 1021.7
20260901010813 66 331 0.0 0.0 0.00 0.01 0.01 99 1021.8
20260901010308 66 333 0.0 0.0 0.00 0.01 0.01 99 1021.4
20260901005806 66 330 0.0 0.0 0.00 0.01 0.01 99 1021.6
20260901005306 66 327 0.0 0.0 0.00 0.01 0.01 99 1021.8
20260901004802 66 318 0.0 0.0 0.00 0.01 0.01 99 1021.7
20260901004257 66 318 0.0 0.0 0.00 0.01 0.01 99 1021.7
20260901003756 66 330 0.0 0.0 0.00 0.01 0.01 99 1021.4
20260901003251 66 314 0.0 0.0 0.00 0.01 0.01 99 1021.6
20260901002744 66 318 0.0 0.0 0.00 0.01 0.01 99 1021.5
20260901002239 66 317 0.0 0.0 0.00 0.01 0.01 99 1021.7
20260901001729 66 319 0.0 0.0 0.00 0.01 0.01 99 1021.6
20260901001224 66 318 0.0 0.0 0.00 0.01 0.01 99 1021.5
20260901000719 66 269 0.0 0.0 0.00 0.01 0.01 99 1021.5
20260901000214 66 328 0.0 0.0 0.00 0.01 0.01 99 1021.4
20260831235708 66 325 0.0 0.0 0.00 0.01 0.01 99 1021.3
20260831235204 66 310 0.0 0.0 0.00 0.01 0.01 99 1021.4
20260831234703 66 16 0.0 0.0 0.00 0.01 0.01 99 1021.4
20260831234203 66 317 0.0 0.0 0.00 0.01 0.01 99 1021.3
20260831233659 66 313 0.0 0.0 0.00 0.01 0.01 99 1021.3
20260831233154 66 313 0.0 0.0 0.00 0.01 0.01 99 1021.4
20260831232649 66 306 0.0 0.0 0.00 0.01 0.01 99 1021.6
20260831232145 66 333 0.0 0.0 0.00 0.01 0.01 98 1021.6
20260831231641 66 312 0.0 0.0 0.00 0.01 0.01 98 1021.8
20260831231137 66 317 0.0 0.0 0.00 0.01 0.01 98 1021.8
20260831230632 66 28 0.0 1.0 0.00 0.01 0.01 97 1021.8
20260831230127 66 331 0.0 0.0 0.00 0.01 0.01 97 1021.7
20260831225627 66 316 0.0 0.0 0.00 0.01 0.01 97 1022.1
20260831225122 66 309 0.0 0.0 0.00 0.01 0.01 96 1021.9
20260831224617 66 321 0.0 0.0 0.00 0.01 0.01 96 1022.1
20260831224113 67 318 0.0 0.0 0.00 0.01 0.01 95 1022.0
20260831223608 67 318 0.0 0.0 0.00 0.01 0.01 94 1022.1
20260831223104 67 314 0.0 0.0 0.00 0.01 0.01 94 1021.9
20260831222555 68 341 0.0 0.0 0.00 0.01 0.01 92 1022.1
20260831222054 68 316 0.0 0.0 0.00 0.01 0.01 92 1022.3
20260831221550 68 327 0.0 0.0 0.00 0.01 0.01 91 1022.1
20260831221045 68 316 0.0 0.0 0.00 0.01 0.01 92 1022.2
20260831220544 69 316 0.0 0.0 0.00 0.01 0.01 92 1022.1
20260831220040 69 320 0.0 0.0 0.00 0.01 0.01 90 1021.9
20260831215536 69 327 0.0 0.0 0.00 0.01 0.01 89 1021.8
20260831215031 69 331 0.0 0.0 0.00 0.01 0.01 88 1022.0
20260831214529 69 332 0.0 0.0 0.00 0.01 0.01 89 1021.6
20260831214024 69 332 0.0 0.0 0.00 0.01 0.01 88 1021.7
20260831213521 69 333 0.0 0.0 0.00 0.01 0.01 87 1021.8
20260831213016 70 336 0.0 0.0 0.00 0.01 0.01 87 1021.9
20260831212512 70 332 0.0 0.0 0.00 0.01 0.01 85 1021.7
20260831212007 70 352 0.0 0.0 0.00 0.01 0.01 84 1021.6
20260831211502 70 329 0.0 0.0 0.00 0.01 0.01 84 1021.8
20260831211001 70 329 0.0 0.0 0.00 0.01 0.01 84 1021.9
20260831210456 70 323 0.0 0.0 0.00 0.01 0.01 85 1021.9
20260831205952 70 335 0.0 0.0 0.00 0.01 0.01 84 1021.8
20260831205448 70 328 0.0 0.0 0.00 0.01 0.01 84 1022.0
20260831204943 71 328 0.0 0.0 0.00 0.01 0.01 83 1021.8
20260831204442 71 341 0.0 0.0 0.00 0.01 0.01 82 1021.7
20260831203941 71 336 0.0 0.0 0.00 0.01 0.01 83 1022.0
20260831203435 71 333 0.0 0.0 0.00 0.01 0.01 83 1021.6
20260831202934 71 331 0.0 0.0 0.00 0.01 0.01 84 1021.7
20260831202429 71 332 0.0 0.0 0.00 0.01 0.01 84 1021.8
20260831201923 71 328 0.0 0.0 0.00 0.01 0.01 82 1021.9
20260831201422 71 335 0.0 0.0 0.00 0.01 0.01 80 1021.7
20260831200918 72 335 0.0 0.0 0.00 0.01 0.01 82 1022.0
20260831200413 72 332 0.0 0.0 0.00 0.01 0.01 80 1021.8
20260831195913 72 323 0.0 0.0 0.00 0.01 0.01 79 1021.8
20260831195409 71 335 0.0 0.0 0.00 0.01 0.01 80 1021.9
20260831194904 71 345 0.0 0.0 0.00 0.01 0.01 81 1022.2
20260831194359 71 328 0.0 0.0 0.00 0.01 0.01 83 1022.0
20260831193859 71 333 0.0 0.0 0.00 0.01 0.01 83 1022.3
20260831193354 72 329 0.0 0.0 0.00 0.01 0.01 81 1022.2
20260831192849 71 327 0.0 0.0 0.00 0.01 0.01 80 1022.3
20260831192344 72 337 0.0 0.0 0.00 0.01 0.01 79 1022.2
20260831191840 72 326 0.0 1.0 0.00 0.01 0.01 79 1022.2
20260831191336 72 332 0.0 0.0 0.00 0.01 0.01 80 1022.5
20260831190832 73 325 0.0 0.0 0.00 0.01 0.01 79 1022.5
20260831190331 73 315 0.0 0.0 0.00 0.01 0.01 76 1022.7
20260831185830 72 338 0.0 0.0 0.00 0.01 0.01 78 1022.9
20260831185326 73 311 0.0 0.0 0.00 0.01 0.01 79 1022.9
20260831184825 73 323 0.0 0.0 0.00 0.01 0.01 77 1023.0
20260831184321 73 323 0.0 0.0 0.00 0.01 0.01 80 1022.9
20260831183822 73 326 0.0 0.0 0.00 0.01 0.01 77 1023.0
20260831183321 73 306 1.0 2.0 0.00 0.01 0.01 77 1022.9
20260831182820 73 350 1.0 1.0 0.00 0.01 0.01 78 1022.8
20260831182315 73 312 1.0 1.0 0.00 0.01 0.01 77 1023.1
20260831181811 73 312 0.0 0.0 0.00 0.01 0.01 79 1022.8
20260831181306 73 309 0.0 0.0 0.00 0.01 0.01 80 1023.0
20260831180801 73 334 0.0 0.0 0.00 0.01 0.01 78 1023.0
20260831180255 73 314 0.0 0.0 0.00 0.01 0.01 78 1023.1
20260831175754 73 314 0.0 0.0 0.00 0.01 0.01 79 1023.3
20260831175251 74 316 0.0 0.0 0.00 0.01 0.01 79 1023.3
20260831174746 73 319 0.0 0.0 0.00 0.01 0.01 80 1023.2
20260831174242 73 335 0.0 0.0 0.00 0.01 0.01 81 1023.4
20260831173741 73 320 0.0 0.0 0.00 0.01 0.01 80 1023.5
20260831173235 73 319 0.0 0.0 0.00 0.01 0.01 79 1023.6
20260831172731 72 311 0.0 0.0 0.00 0.01 0.01 79 1023.3
20260831172226 72 316 0.0 0.0 0.00 0.01 0.01 79 1023.5
20260831171720 73 315 0.0 0.0 0.00 0.01 0.01 79 1023.3
20260831171218 74 302 0.0 1.0 0.00 0.01 0.01 77 1023.1
20260831170714 73 315 0.0 0.0 0.00 0.01 0.01 80 1023.4
20260831170210 73 315 1.0 1.0 0.00 0.01 0.01 77 1023.1
20260831165706 74 310 0.0 1.0 0.00 0.01 0.01 78 1023.1
20260831165203 74 318 0.0 0.0 0.00 0.01 0.01 77 1023.4
20260831164658 74 318 0.0 0.0 0.00 0.01 0.01 77 1023.4
20260831164154 74 322 0.0 1.0 0.00 0.01 0.01 72 1023.3
20260831163649 75 318 0.0 0.0 0.00 0.01 0.01 74 1022.9
20260831163145 74 329 0.0 0.0 0.00 0.01 0.01 75 1023.3
20260831162644 75 320 0.0 0.0 0.00 0.01 0.01 74 1023.3
20260831162142 74 317 0.0 0.0 0.00 0.01 0.01 77 1023.3
20260831161638 75 313 1.0 1.0 0.00 0.01 0.01 77 1023.6
20260831161134 74 324 0.0 0.0 0.00 0.01 0.01 75 1023.6
20260831160633 74 311 1.0 1.0 0.00 0.01 0.01 75 1023.7
20260831160129 74 326 1.0 1.0 0.00 0.01 0.01 76 1023.7
20260831155628 75 290 0.0 1.0 0.00 0.01 0.01 77 1023.7
20260831155124 75 304 0.0 0.0 0.00 0.01 0.01 74 1023.5
20260831154619 75 316 0.0 0.0 0.00 0.01 0.01 74 1023.9
20260831154114 74 349 2.0 2.0 0.00 0.01 0.01 74 1023.9
20260831153613 74 326 1.0 1.0 0.00 0.01 0.01 76 1023.9
20260831153110 73 318 0.0 1.0 0.00 0.01 0.01 76 1023.7
20260831152605 73 320 0.0 1.0 0.00 0.01 0.01 75 1023.6
20260831152101 74 316 0.0 1.0 0.00 0.01 0.01 73 1023.7
20260831151600 73 274 0.0 1.0 0.00 0.01 0.01 76 1023.7
20260831151055 74 312 0.0 0.0 0.00 0.01 0.01 76 1024.0
20260831150550 73 297 1.0 1.0 0.00 0.01 0.01 77 1023.5
20260831150046 71 320 0.0 1.0 0.00 0.01 0.01 78 1023.7
20260831145540 72 322 0.0 1.0 0.00 0.01 0.01 79 1023.9
20260831145037 72 336 0.0 1.0 0.00 0.01 0.01 79 1023.8
20260831144532 73 108 1.0 1.0 0.00 0.01 0.01 77 1023.8
20260831144027 72 333 0.0 0.0 0.00 0.01 0.01 81 1023.8
20260831143521 71 318 0.0 0.0 0.00 0.01 0.01 84 1023.8
20260831143017 71 320 0.0 0.0 0.00 0.01 0.01 84 1024.0
20260831142514 71 335 0.0 1.0 0.00 0.01 0.01 83 1023.8
20260831142009 72 23 1.0 1.0 0.00 0.01 0.01 81 1023.8
20260831141508 71 320 0.0 0.0 0.00 0.01 0.01 84 1023.6
20260831141003 72 37 2.0 2.0 0.00 0.01 0.01 83 1023.6
20260831140502 71 318 1.0 1.0 0.00 0.01 0.01 83 1023.8
20260831140001 71 338 0.0 1.0 0.00 0.01 0.01 84 1023.6
20260831135500 71 307 0.0 0.0 0.00 0.01 0.01 84 1023.6
20260831134954 69 339 0.0 1.0 0.00 0.01 0.01 85 1023.6
20260831134451 70 124 1.0 2.0 0.00 0.01 0.01 84 1023.6
20260831133946 70 331 0.0 0.0 0.00 0.01 0.01 85 1023.4
20260831133446 70 321 1.0 1.0 0.00 0.01 0.01 85 1023.6
20260831132941 70 74 2.0 2.0 0.00 0.01 0.01 83 1023.4
20260831132436 69 344 0.0 0.0 0.00 0.01 0.01 89 1023.6
20260831131936 69 316 0.0 0.0 0.00 0.01 0.01 88 1023.6
20260831131431 68 324 0.0 0.0 0.00 0.01 0.01 91 1023.7
20260831130926 68 318 0.0 0.0 0.00 0.01 0.01 92 1023.5
20260831130422 68 332 0.0 0.0 0.00 0.01 0.01 91 1023.6
20260831125921 67 323 0.0 0.0 0.00 0.01 0.01 93 1023.8
20260831125416 67 319 1.0 1.0 0.00 0.01 0.01 93 1023.4
20260831124912 66 323 0.0 0.0 0.00 0.01 0.01 94 1023.5
20260831124408 66 289 2.0 3.0 0.00 0.01 0.01 94 1023.6
20260831123908 66 326 0.0 0.0 0.00 0.01 0.01 96 1023.6
20260831123407 66 343 2.0 3.0 0.00 0.01 0.01 97 1023.9
20260831122902 65 65 1.0 1.0 0.00 0.01 0.01 96 1023.6
20260831122358 65 325 0.0 0.0 0.00 0.01 0.01 97 1023.7
20260831121852 64 319 0.0 0.0 0.00 0.01 0.01 98 1023.5
20260831121348 64 323 0.0 1.0 0.00 0.01 0.01 98 1023.4
20260831120844 64 325 0.0 0.0 0.00 0.01 0.01 99 1023.5
20260831120343 64 326 0.0 0.0 0.00 0.01 0.01 99 1023.7
20260831115838 64 313 0.0 0.0 0.00 0.01 0.01 99 1023.6
20260831115335 63 329 0.0 0.0 0.00 0.01 0.01 99 1023.7
20260831114834 63 309 0.0 0.0 0.00 0.01 0.01 99 1023.5
20260831114333 63 323 1.0 2.0 0.00 0.01 0.01 99 1023.5
20260831113829 63 311 0.0 1.0 0.00 0.01 0.01 99 1023.4
20260831113329 63 308 0.0 0.0 0.00 0.01 0.01 99 1023.3
20260831112823 63 326 0.0 0.0 0.00 0.01 0.01 99 1023.4
20260831112318 62 330 0.0 0.0 0.00 0.01 0.01 99 1023.3
20260831111814 62 331 0.0 0.0 0.00 0.01 0.01 99 1023.4
20260831111310 62 337 0.0 0.0 0.00 0.01 0.01 99 1023.4
20260831110806 62 349 0.0 0.0 0.00 0.01 0.01 99 1023.2
20260831110255 62 309 0.0 0.0 0.00 0.01 0.01 99 1022.9
20260831105753 62 319 0.0 0.0 0.00 0.01 0.01 99 1023.1
20260831105249 62 327 0.0 0.0 0.00 0.01 0.01 99 1023.2
20260831104744 62 324 0.0 0.0 0.00 0.01 0.01 99 1022.9
20260831104241 62 328 0.0 0.0 0.00 0.01 0.01 99 1022.7
20260831103740 62 332 0.0 0.0 0.00 0.01 0.01 99 1022.7
20260831103236 62 341 0.0 0.0 0.00 0.01 0.01 99 1022.7
20260831102735 62 332 0.0 0.0 0.00 0.01 0.01 99 1022.5
20260831102225 62 350 0.0 0.0 0.00 0.01 0.01 99 1022.7
20260831101720 62 331 0.0 0.0 0.00 0.01 0.01 99 1022.5
20260831101216 62 324 0.0 0.0 0.00 0.01 0.01 99 1022.4
20260831100712 62 338 2.0 2.0 0.00 0.01 0.01 99 1022.4
20260831100208 62 344 0.0 0.0 0.00 0.01 0.01 99 1022.3
20260831095706 61 339 0.0 0.0 0.00 0.01 0.01 99 1022.2
20260831095201 61 318 0.0 0.0 0.00 0.01 0.01 99 1022.2
20260831094656 61 356 0.0 0.0 0.00 0.01 0.01 99 1022.4
20260831094152 61 352 0.0 0.0 0.00 0.01 0.01 99 1022.3
20260831093648 61 318 0.0 0.0 0.00 0.01 0.01 99 1022.7
20260831093143 61 22 0.0 0.0 0.00 0.01 0.01 99 1022.7
20260831092639 61 347 0.0 0.0 0.00 0.01 0.01 99 1022.7
20260831092134 61 341 0.0 0.0 0.00 0.01 0.01 99 1022.7
20260831091628 61 355 0.0 0.0 0.00 0.01 0.01 99 1022.8
20260831091125 61 315 0.0 0.0 0.00 0.01 0.01 99 1022.7
20260831090620 61 334 0.0 0.0 0.00 0.01 0.01 99 1022.8
20260831090116 61 345 0.0 0.0 0.00 0.01 0.01 99 1022.8
20260831085611 61 9 0.0 0.0 0.00 0.01 0.01 99 1022.5
20260831085106 61 335 0.0 0.0 0.00 0.01 0.01 99 1022.4
20260831084602 61 355 0.0 0.0 0.00 0.01 0.01 99 1022.8
20260831084058 61 338 0.0 0.0 0.00 0.01 0.01 99 1022.4
20260831083553 61 5 0.0 0.0 0.00 0.01 0.01 99 1022.4
20260831083048 61 352 0.0 0.0 0.00 0.01 0.01 99 1022.5
20260831082541 61 334 0.0 0.0 0.00 0.01 0.01 99 1022.5
20260831082036 61 328 0.0 0.0 0.00 0.01 0.01 99 1022.3
20260831081533 61 327 0.0 0.0 0.00 0.01 0.01 99 1022.5
20260831081028 61 328 0.0 0.0 0.00 0.01 0.01 99 1022.5
20260831080522 61 329 0.0 0.0 0.00 0.01 0.01 99 1022.4
20260831080018 61 332 0.0 0.0 0.00 0.01 0.01 99 1022.1
20260831075513 61 331 0.0 0.0 0.00 0.01 0.01 99 1022.3
20260831075009 61 341 0.0 0.0 0.00 0.01 0.01 99 1022.4
20260831074508 61 321 0.0 0.0 0.00 0.01 0.01 99 1022.5
20260831074003 61 329 0.0 0.0 0.00 0.01 0.01 99 1022.3
20260831073503 61 333 0.0 0.0 0.00 0.01 0.01 99 1022.8
20260831073001 61 331 0.0 0.0 0.00 0.01 0.01 99 1022.9
20260831072457 62 339 0.0 0.0 0.00 0.01 0.01 99 1022.4
20260831071954 61 331 0.0 0.0 0.00 0.01 0.01 99 1022.3
20260831071452 62 332 0.0 0.0 0.00 0.01 0.01 99 1022.5
20260831070947 62 332 0.0 0.0 0.00 0.01 0.01 99 1022.4
20260831070441 62 331 0.0 0.0 0.00 0.01 0.01 99 1022.1
20260831065941 62 327 0.0 0.0 0.00 0.01 0.01 99 1022.3
20260831065439 62 317 0.0 0.0 0.07 0.01 0.01 99 1022.4
20260831064934 62 315 0.0 0.0 0.07 0.01 0.01 99 1022.2
20260831064429 62 328 0.0 0.0 0.00 0.00 0.00 99 1022.1
20260831063925 62 326 0.0 0.0 0.00 0.00 0.00 99 1022.2
20260831063420 62 322 0.0 0.0 0.00 0.00 0.00 99 1022.1
20260831062914 62 332 0.0 0.0 0.00 0.00 0.00 99 1022.2
20260831062410 62 329 0.0 0.0 0.00 0.00 0.00 99 1022.3
20260831061908 62 327 0.0 0.0 0.00 0.00 0.00 99 1022.3
20260831061407 62 324 0.0 0.0 0.00 0.00 0.00 99 1022.2
20260831060904 62 324 0.0 0.0 0.00 0.00 0.00 99 1022.0
20260831060403 62 324 0.0 0.0 0.00 0.00 0.00 99 1022.1
20260831055857 63 324 0.0 0.0 0.00 0.00 0.00 99 1022.1
20260831055351 63 324 0.0 0.0 0.00 0.00 0.00 99 1022.0
20260831054842 63 324 0.0 0.0 0.00 0.00 0.00 99 1022.3
20260831054337 63 324 0.0 0.0 0.00 0.00 0.00 99 1022.0
20260831053836 63 323 0.0 0.0 0.00 0.00 0.00 99 1022.1
20260831053335 63 328 0.0 0.0 0.00 0.00 0.00 99 1022.0
20260831052829 64 332 0.0 0.0 0.00 0.00 0.00 99 1021.9
20260831052329 64 333 0.0 0.0 0.00 0.00 0.00 99 1021.8
20260831051827 64 332 0.0 0.0 0.00 0.00 0.00 99 1021.9
20260831051326 64 343 0.0 0.0 0.00 0.00 0.00 99 1022.0
20260831050821 64 345 0.0 0.0 0.00 0.00 0.00 99 1021.8
20260831050319 64 319 0.0 0.0 0.00 0.00 0.00 99 1021.7
20260831045814 64 313 0.0 0.0 0.00 0.00 0.00 99 1022.0
20260831045314 64 15 0.0 0.0 0.00 0.00 0.00 99 1021.7
20260831044809 64 329 0.0 0.0 0.00 0.00 0.00 99 1021.9
20260831044303 65 293 0.0 0.0 0.00 0.00 0.00 99 1021.8
20260831043754 65 316 0.0 0.0 0.00 0.00 0.00 99 1021.6
20260831043248 65 315 0.0 0.0 0.00 0.00 0.00 99 1021.8
20260831042748 65 315 0.0 0.0 0.00 0.00 0.00 99 1021.9
20260831042243 65 323 0.0 0.0 0.00 0.00 0.00 99 1021.9
20260831041738 65 332 0.0 0.0 0.00 0.00 0.00 99 1022.0
20260831041238 65 326 0.0 0.0 0.00 0.00 0.00 99 1021.8
20260831040733 65 319 0.0 0.0 0.00 0.00 0.00 99 1021.8
20260831040232 65 323 0.0 0.0 0.00 0.00 0.00 99 1021.7
20260831035730 65 329 0.0 0.0 0.00 0.05 0.05 99 1021.7
20260831035224 65 320 0.0 0.0 0.00 0.05 0.05 99 1021.7
20260831034723 65 320 0.0 0.0 0.00 0.05 0.05 99 1021.7
20260831034219 66 320 0.0 0.0 0.00 0.05 0.05 99 1021.9
20260831033714 66 320 0.0 0.0 0.00 0.05 0.05 99 1021.8
20260831033214 66 327 0.0 0.0 0.00 0.05 0.05 99 1022.0
20260831032709 66 327 0.0 0.0 0.00 0.05 0.05 99 1022.1
20260831032205 66 327 0.0 0.0 0.00 0.05 0.05 99 1022.1
20260831031659 66 344 0.0 0.0 0.00 0.05 0.05 99 1022.1
20260831031153 66 328 0.0 0.0 0.00 0.05 0.05 99 1022.0
20260831030652 66 328 0.0 0.0 0.00 0.05 0.05 99 1021.8
20260831030151 66 322 0.0 0.0 0.00 0.05 0.05 99 1022.2
20260831025649 66 331 0.0 0.0 0.00 0.05 0.05 99 1022.1
20260831025144 66 327 0.0 0.0 0.00 0.05 0.05 99 1022.1
20260831024641 66 316 0.0 0.0 0.00 0.05 0.05 99 1022.0
20260831024139 66 316 0.0 0.0 0.00 0.05 0.05 99 1022.0